Location: Newark
(25.4800°N, 85.7200°E)
Time: 03:31:28
(UTC+00:00)

Starlink (trailer) - Visible Passes

Search period start: 22 July 2019 00:00
Search period end: 01 August 2019 00:00
Orbit: 548 x 551 km, 53.0° (Epoch: 21 July)

Date Brightness Start Highest point End Pass type
(mag) Time Alt. Az. Time Alt. Az. Time Alt. Az.
28 Jul 5.6 14:09:52 10° S 14:10:32 13° SSE 14:10:32 13° SSE visible
28 Jul 7.0 22:38:13 10° NNE 22:39:26 11° NE 22:40:40 10° NE visible
29 Jul 4.3 14:03:49 10° S 14:07:30 31° SE 14:11:12 10° ENE visible
29 Jul 6.1 15:43:53 10° W 15:47:03 21° NW 15:50:14 10° N visible
29 Jul 6.7 22:31:41 10° N 22:34:11 15° NE 22:36:39 10° ENE visible
30 Jul 3.8 13:58:02 10° SSW 14:02:01 48° SE 14:06:01 10° NE visible
30 Jul 6.6 15:39:17 10° WNW 15:41:45 15° NW 15:44:13 10° N visible
30 Jul 6.3 22:25:40 10° N 22:28:52 21° NE 22:32:03 10° E visible
31 Jul 3.5 13:52:25 10° SSW 13:56:33 76° SE 14:00:41 10° NE visible
31 Jul 7.0 15:35:19 10° NW 15:36:29 11° NW 15:37:40 10° NNW visible
31 Jul 5.7 22:19:52 10° NNW 22:23:31 30° NE 22:27:10 10° ESE visible
